Time,TemperatureF,DewpointF,PressureIn,WindDirection,WindDirectionDegrees,WindSpeedMPH,WindSpeedGustMPH,Humidity,HourlyPrecipIn,Conditions,Clouds,dailyrainin,SoftwareType,DateUTC
2013-02-15 00:00:00,33.4,27.0,29.97,SW,227,0.0,1.0,76,0.00,,,0.15,weatherlink.com 1.10,2013-02-15 05:00:00,
2013-02-15 00:02:00,33.4,26.6,29.97,SW,227,0.0,1.0,76,0.00,,,0.00,Wunderground v.1.15,2013-02-15 05:02:00,
2013-02-15 00:05:00,33.4,26.6,29.97,SW,227,0.0,1.0,76,0.00,,,0.00,Wunderground v.1.15,2013-02-15 05:05:00,
2013-02-15 00:08:00,33.3,26.5,29.97,SW,227,0.0,1.0,76,0.00,,,0.00,Wunderground v.1.15,2013-02-15 05:08:00,
2013-02-15 00:14:00,33.2,26.5,29.97,SW,227,0.0,0.0,76,0.00,,,0.00,Wunderground v.1.15,2013-02-15 05:14:00,
2013-02-15 00:19:00,33.3,26.5,29.97,SW,227,0.0,0.0,76,0.00,,,0.00,Wunderground v.1.15,2013-02-15 05:19:00,
2013-02-15 00:24:00,33.3,26.5,29.97,SW,227,0.0,0.0,76,0.00,,,0.00,Wunderground v.1.15,2013-02-15 05:24:00,
2013-02-15 00:29:00,33.3,26.5,29.97,SW,227,0.0,0.0,76,0.00,,,0.00,Wunderground v.1.15,2013-02-15 05:29:00,
2013-02-15 00:34:00,33.4,26.6,29.97,SW,227,0.0,2.0,76,0.00,,,0.00,Wunderground v.1.15,2013-02-15 05:34:00,
2013-02-15 00:39:00,33.6,26.8,29.97,SW,227,0.0,2.0,76,0.00,,,0.00,Wunderground v.1.15,2013-02-15 05:39:00,
2013-02-15 00:45:00,33.7,26.9,29.96,SW,227,0.0,1.0,76,0.00,,,0.00,Wunderground v.1.15,2013-02-15 05:45:00,
2013-02-15 00:50:00,33.7,26.9,29.96,SW,227,0.0,0.0,76,0.00,,,0.00,Wunderground v.1.15,2013-02-15 05:50:00,
2013-02-15 00:55:00,33.7,26.6,29.96,SW,227,0.0,0.0,75,0.00,,,0.00,Wunderground v.1.15,2013-02-15 05:55:00,
2013-02-15 01:00:00,33.9,27.4,29.96,SW,227,0.0,0.0,77,0.00,,,0.00,Wunderground v.1.15,2013-02-15 06:00:00,
2013-02-15 01:06:00,34.0,27.2,29.96,SW,227,0.0,1.0,76,0.00,,,0.00,Wunderground v.1.15,2013-02-15 06:06:00,
2013-02-15 01:11:00,34.0,27.2,29.96,SW,227,0.0,0.0,76,0.00,,,0.00,Wunderground v.1.15,2013-02-15 06:11:00,
2013-02-15 01:16:00,34.0,27.0,29.96,SW,227,0.0,1.0,76,0.00,,,0.00,weatherlink.com 1.10,2013-02-15 06:16:00,
2013-02-15 01:21:00,34.0,27.2,29.96,SW,227,0.0,0.0,76,0.00,,,0.00,Wunderground v.1.15,2013-02-15 06:21:00,
2013-02-15 01:26:00,34.2,27.1,29.96,SW,234,0.0,1.0,75,0.00,,,0.00,Wunderground v.1.15,2013-02-15 06:26:00,
2013-02-15 01:31:00,34.5,27.1,29.96,South,184,1.0,2.0,74,0.00,,,0.00,Wunderground v.1.15,2013-02-15 06:31:00,
2013-02-15 01:37:00,34.8,27.4,29.96,WSW,254,1.0,2.0,74,0.00,,,0.00,Wunderground v.1.15,2013-02-15 06:37:00,
2013-02-15 01:42:00,34.8,27.4,29.96,South,191,1.0,1.0,74,0.00,,,0.00,Wunderground v.1.15,2013-02-15 06:42:00,
2013-02-15 01:47:00,35.0,26.9,29.96,WNW,283,0.0,2.0,72,0.00,,,0.00,Wunderground v.1.15,2013-02-15 06:47:00,
2013-02-15 01:52:00,35.4,27.6,29.96,West,273,0.0,2.0,73,0.00,,,0.00,Wunderground v.1.15,2013-02-15 06:52:00,
2013-02-15 01:57:00,35.3,27.8,29.96,SSW,198,1.0,2.0,74,0.00,,,0.00,Wunderground v.1.15,2013-02-15 06:57:00,
2013-02-15 02:04:00,35.0,27.5,29.96,SSW,198,0.0,1.0,74,0.00,,,0.00,Wunderground v.1.15,2013-02-15 07:04:00,
2013-02-15 02:09:00,34.9,27.1,29.96,East,99,0.0,1.0,73,0.00,,,0.00,Wunderground v.1.15,2013-02-15 07:09:00,
2013-02-15 02:15:00,34.9,27.1,29.96,ESE,107,0.0,1.0,73,0.00,,,0.00,Wunderground v.1.15,2013-02-15 07:15:00,
2013-02-15 02:20:00,35.1,27.0,29.96,WSW,240,0.0,0.0,72,0.00,,,0.00,Wunderground v.1.15,2013-02-15 07:20:00,
2013-02-15 02:25:00,35.2,27.1,29.95,West,265,0.0,3.0,72,0.00,,,0.00,Wunderground v.1.15,2013-02-15 07:25:00,
2013-02-15 02:30:00,35.2,27.1,29.96,West,265,0.0,0.0,72,0.00,,,0.00,Wunderground v.1.15,2013-02-15 07:30:00,
2013-02-15 02:35:00,34.8,27.4,29.96,West,265,0.0,0.0,74,0.00,,,0.00,Wunderground v.1.15,2013-02-15 07:35:00,
2013-02-15 02:41:00,34.3,27.2,29.96,West,265,0.0,0.0,75,0.00,,,0.00,Wunderground v.1.15,2013-02-15 07:41:00,
2013-02-15 02:47:00,33.9,26.8,29.97,West,265,0.0,0.0,75,0.00,,,0.00,Wunderground v.1.15,2013-02-15 07:47:00,
2013-02-15 02:52:00,33.7,26.6,29.97,West,265,0.0,0.0,75,0.00,,,0.00,Wunderground v.1.15,2013-02-15 07:52:00,
2013-02-15 02:57:00,33.8,26.4,29.97,West,268,0.0,2.0,74,0.00,,,0.00,Wunderground v.1.15,2013-02-15 07:57:00,
2013-02-15 03:04:00,34.2,26.4,29.97,SW,233,1.0,1.0,73,0.00,,,0.00,Wunderground v.1.15,2013-02-15 08:04:00,
2013-02-15 03:10:00,34.4,26.6,29.97,WSW,240,1.0,1.0,73,0.00,,,0.00,Wunderground v.1.15,2013-02-15 08:10:00,
2013-02-15 03:16:00,34.6,26.8,29.97,SSW,209,1.0,2.0,73,0.00,,,0.00,Wunderground v.1.15,2013-02-15 08:16:00,
2013-02-15 03:21:00,34.7,26.6,29.97,WSW,238,0.0,0.0,72,0.00,,,0.00,Wunderground v.1.15,2013-02-15 08:21:00,
2013-02-15 03:26:00,34.9,26.8,29.97,West,277,0.0,1.0,72,0.00,,,0.00,Wunderground v.1.15,2013-02-15 08:26:00,
2013-02-15 03:31:00,35.2,26.7,29.97,WSW,250,1.0,4.0,71,0.00,,,0.00,Wunderground v.1.15,2013-02-15 08:31:00,
2013-02-15 03:36:00,35.3,26.8,29.97,WSW,242,1.0,4.0,71,0.00,,,0.00,Wunderground v.1.15,2013-02-15 08:36:00,
2013-02-15 03:41:00,35.5,26.7,29.97,WSW,241,1.0,1.0,70,0.00,,,0.00,Wunderground v.1.15,2013-02-15 08:41:00,
2013-02-15 03:47:00,35.5,27.0,29.97,WSW,245,0.0,3.0,71,0.00,,,0.00,weatherlink.com 1.10,2013-02-15 08:47:00,
2013-02-15 03:52:00,35.5,26.7,29.97,SW,222,1.0,2.0,70,0.00,,,0.00,Wunderground v.1.15,2013-02-15 08:52:00,
2013-02-15 03:57:00,35.6,27.1,29.97,WSW,258,1.0,2.0,71,0.00,,,0.00,Wunderground v.1.15,2013-02-15 08:57:00,
2013-02-15 04:03:00,35.7,27.0,29.97,WSW,255,3.0,4.0,72,0.00,,,0.00,weatherlink.com 1.10,2013-02-15 09:03:00,
2013-02-15 04:08:00,35.7,27.2,29.97,WSW,251,1.0,1.0,71,0.00,,,0.00,Wunderground v.1.15,2013-02-15 09:08:00,
2013-02-15 04:13:00,35.9,27.1,29.97,SW,228,1.0,1.0,70,0.00,,,0.00,Wunderground v.1.15,2013-02-15 09:13:00,
2013-02-15 04:18:00,36.2,27.4,29.97,SSW,203,1.0,5.0,70,0.00,,,0.00,Wunderground v.1.15,2013-02-15 09:18:00,
2013-02-15 04:24:00,36.3,27.1,29.97,West,270,1.0,1.0,69,0.00,,,0.00,Wunderground v.1.15,2013-02-15 09:24:00,
2013-02-15 04:29:00,36.3,27.1,29.97,SW,232,1.0,1.0,69,0.00,,,0.00,Wunderground v.1.15,2013-02-15 09:29:00,
2013-02-15 04:34:00,36.3,27.1,29.97,SW,232,1.0,3.0,69,0.00,,,0.00,Wunderground v.1.15,2013-02-15 09:34:00,
2013-02-15 04:39:00,36.2,27.0,29.98,SSW,197,2.0,3.0,69,0.00,,,0.00,Wunderground v.1.15,2013-02-15 09:39:00,
2013-02-15 04:45:00,36.1,27.3,29.98,SW,215,1.0,2.0,70,0.00,,,0.00,Wunderground v.1.15,2013-02-15 09:45:00,
2013-02-15 04:50:00,36.0,27.0,29.98,WSW,240,1.0,4.0,70,0.00,,,0.00,weatherlink.com 1.10,2013-02-15 09:50:00,
2013-02-15 04:56:00,35.9,27.4,29.98,West,279,1.0,4.0,71,0.00,,,0.00,Wunderground v.1.15,2013-02-15 09:56:00,
2013-02-15 05:02:00,35.9,27.1,29.98,SSW,205,1.0,1.0,70,0.00,,,0.00,Wunderground v.1.15,2013-02-15 10:02:00,
2013-02-15 05:08:00,35.8,27.0,29.98,SSW,205,1.0,1.0,70,0.00,,,0.00,Wunderground v.1.15,2013-02-15 10:08:00,
2013-02-15 05:14:00,36.0,27.2,29.98,WSW,243,1.0,2.0,70,0.00,,,0.00,Wunderground v.1.15,2013-02-15 10:14:00,
2013-02-15 05:19:00,36.4,27.2,29.98,SW,231,2.0,3.0,69,0.00,,,0.00,Wunderground v.1.15,2013-02-15 10:19:00,
2013-02-15 05:24:00,36.8,27.6,29.98,SW,221,2.0,2.0,69,0.00,,,0.00,Wunderground v.1.15,2013-02-15 10:24:00,
2013-02-15 05:30:00,36.5,27.3,29.98,SW,225,1.0,2.0,69,0.00,,,0.00,Wunderground v.1.15,2013-02-15 10:30:00,
2013-02-15 05:35:00,36.3,27.1,29.98,WSW,254,1.0,3.0,69,0.00,,,0.00,Wunderground v.1.15,2013-02-15 10:35:00,
2013-02-15 05:40:00,36.3,27.4,29.98,WSW,240,1.0,1.0,70,0.00,,,0.00,Wunderground v.1.15,2013-02-15 10:40:00,
2013-02-15 05:45:00,36.5,27.3,29.98,SW,219,1.0,4.0,69,0.00,,,0.00,Wunderground v.1.15,2013-02-15 10:45:00,
2013-02-15 05:51:00,36.5,27.0,29.98,SW,219,1.0,5.0,69,0.00,,,0.00,weatherlink.com 1.10,2013-02-15 10:51:00,
2013-02-15 05:56:00,36.2,27.4,29.99,SW,225,0.0,1.0,70,0.00,,,0.00,Wunderground v.1.15,2013-02-15 10:56:00,
2013-02-15 06:02:00,35.8,27.3,29.99,SW,225,0.0,0.0,71,0.00,,,0.00,Wunderground v.1.15,2013-02-15 11:02:00,
2013-02-15 06:09:00,35.3,26.8,29.99,SW,225,0.0,1.0,71,0.00,,,0.00,Wunderground v.1.15,2013-02-15 11:09:00,
2013-02-15 06:14:00,34.9,26.8,29.99,SW,225,0.0,1.0,72,0.00,,,0.00,Wunderground v.1.15,2013-02-15 11:14:00,
2013-02-15 06:19:00,34.6,27.2,29.99,SW,225,0.0,1.0,74,0.00,,,0.00,Wunderground v.1.15,2013-02-15 11:19:00,
2013-02-15 06:24:00,34.3,26.9,29.99,SW,225,0.0,1.0,74,0.00,,,0.00,Wunderground v.1.15,2013-02-15 11:24:00,
2013-02-15 06:30:00,34.2,26.8,30.00,WSW,245,0.0,0.0,74,0.00,,,0.00,Wunderground v.1.15,2013-02-15 11:30:00,
2013-02-15 06:35:00,34.3,26.9,30.00,SW,230,1.0,2.0,74,0.00,,,0.00,Wunderground v.1.15,2013-02-15 11:35:00,
2013-02-15 06:40:00,34.5,27.1,30.00,South,191,1.0,3.0,74,0.00,,,0.00,Wunderground v.1.15,2013-02-15 11:40:00,
2013-02-15 06:45:00,34.7,27.3,30.00,SW,233,1.0,3.0,74,0.00,,,0.00,Wunderground v.1.15,2013-02-15 11:45:00,
2013-02-15 06:50:00,34.7,27.0,30.00,SW,233,1.0,4.0,74,0.00,,,0.00,weatherlink.com 1.10,2013-02-15 11:50:00,
2013-02-15 06:56:00,34.1,27.3,30.01,SW,233,1.0,2.0,76,0.00,,,0.00,Wunderground v.1.15,2013-02-15 11:56:00,
2013-02-15 07:02:00,33.6,27.2,30.01,SW,218,1.0,2.0,77,0.00,,,0.00,Wunderground v.1.15,2013-02-15 12:02:00,
2013-02-15 07:08:00,33.5,27.0,30.01,SW,218,1.0,3.0,77,0.00,,,0.00,weatherlink.com 1.10,2013-02-15 12:08:00,
2013-02-15 07:14:00,33.5,27.1,30.00,SW,218,1.0,2.0,77,0.00,,,0.00,Wunderground v.1.15,2013-02-15 12:14:00,
2013-02-15 07:19:00,33.4,27.3,30.00,SW,218,1.0,2.0,78,0.00,,,0.00,Wunderground v.1.15,2013-02-15 12:19:00,
2013-02-15 07:24:00,33.2,27.1,30.00,SW,218,1.0,1.0,78,0.00,,,0.00,Wunderground v.1.15,2013-02-15 12:24:00,
2013-02-15 07:29:00,33.2,27.4,30.00,SW,218,1.0,1.0,79,0.00,,,0.00,Wunderground v.1.15,2013-02-15 12:29:00,
2013-02-15 07:35:00,33.1,28.0,30.01,SW,218,1.0,2.0,80,0.00,,,0.00,weatherlink.com 1.10,2013-02-15 12:35:00,
2013-02-15 07:41:00,33.2,27.7,30.01,SW,218,0.0,1.0,80,0.00,,,0.00,Wunderground v.1.15,2013-02-15 12:41:00,
2013-02-15 07:47:00,33.4,28.2,30.01,SW,218,0.0,2.0,81,0.00,,,0.00,Wunderground v.1.15,2013-02-15 12:47:00,
2013-02-15 07:52:00,33.8,28.3,30.01,South,186,1.0,3.0,80,0.00,,,0.00,Wunderground v.1.15,2013-02-15 12:52:00,
2013-02-15 07:57:00,34.3,28.8,30.01,South,186,1.0,3.0,80,0.00,,,0.00,Wunderground v.1.15,2013-02-15 12:57:00,
2013-02-15 08:04:00,34.7,28.5,30.02,SW,219,1.0,1.0,78,0.00,,,0.00,Wunderground v.1.15,2013-02-15 13:04:00,
2013-02-15 08:10:00,35.9,28.7,30.02,WSW,246,2.0,2.0,75,0.00,,,0.00,Wunderground v.1.15,2013-02-15 13:10:00,
2013-02-15 08:15:00,36.7,28.9,30.02,WSW,239,2.0,3.0,73,0.00,,,0.00,Wunderground v.1.15,2013-02-15 13:15:00,
2013-02-15 08:21:00,37.4,29.2,30.02,SW,223,2.0,2.0,72,0.00,,,0.00,Wunderground v.1.15,2013-02-15 13:21:00,
2013-02-15 08:26:00,37.9,29.3,30.03,SW,236,1.0,3.0,71,0.00,,,0.00,Wunderground v.1.15,2013-02-15 13:26:00,
2013-02-15 08:32:00,38.6,29.7,30.03,West,271,2.0,3.0,70,0.00,,,0.00,Wunderground v.1.15,2013-02-15 13:32:00,
2013-02-15 08:37:00,39.1,30.0,30.03,SW,216,2.0,4.0,70,0.00,,,0.00,weatherlink.com 1.10,2013-02-15 13:37:00,
2013-02-15 08:44:00,39.9,30.5,30.03,SSW,213,2.0,3.0,69,0.00,,,0.00,Wunderground v.1.15,2013-02-15 13:44:00,
2013-02-15 08:49:00,40.6,30.9,30.03,South,177,2.0,3.0,68,0.00,,,0.00,Wunderground v.1.15,2013-02-15 13:49:00,
2013-02-15 08:54:00,41.2,30.7,30.03,WSW,243,2.0,2.0,66,0.00,,,0.00,Wunderground v.1.15,2013-02-15 13:54:00,
2013-02-15 08:59:00,41.6,31.1,30.03,WSW,251,1.0,2.0,66,0.00,,,0.00,Wunderground v.1.15,2013-02-15 13:59:00,
2013-02-15 09:05:00,42.0,31.1,30.03,WSW,249,1.0,2.0,65,0.00,,,0.00,Wunderground v.1.15,2013-02-15 14:05:00,
2013-02-15 09:10:00,42.5,31.9,30.03,SW,229,1.0,1.0,66,0.00,,,0.00,Wunderground v.1.15,2013-02-15 14:10:00,
2013-02-15 09:16:00,43.3,31.9,30.03,West,271,1.0,3.0,64,0.00,,,0.00,Wunderground v.1.15,2013-02-15 14:16:00,
2013-02-15 09:21:00,43.8,32.4,30.02,SSW,195,2.0,2.0,64,0.00,,,0.00,Wunderground v.1.15,2013-02-15 14:21:00,
2013-02-15 09:27:00,44.6,33.6,30.03,WSW,239,2.0,4.0,65,0.00,,,0.00,Wunderground v.1.15,2013-02-15 14:27:00,
2013-02-15 09:33:00,45.6,34.5,30.03,West,268,1.0,2.0,65,0.00,,,0.00,Wunderground v.1.15,2013-02-15 14:33:00,
2013-02-15 09:38:00,46.2,34.3,30.03,WSW,242,1.0,2.0,63,0.00,,,0.00,Wunderground v.1.15,2013-02-15 14:38:00,
2013-02-15 09:43:00,46.5,34.2,30.03,WSW,237,1.0,3.0,62,0.00,,,0.00,Wunderground v.1.15,2013-02-15 14:43:00,
2013-02-15 09:48:00,46.7,34.0,30.03,WSW,256,1.0,3.0,61,0.00,,,0.00,Wunderground v.1.15,2013-02-15 14:48:00,
2013-02-15 09:54:00,46.6,33.9,30.03,SW,233,1.0,4.0,61,0.00,,,0.00,Wunderground v.1.15,2013-02-15 14:54:00,
2013-02-15 09:59:00,46.7,33.1,30.02,SW,224,1.0,4.0,59,0.00,,,0.00,Wunderground v.1.15,2013-02-15 14:59:00,
2013-02-15 10:05:00,46.6,33.0,30.02,South,175,2.0,4.0,59,0.00,,,0.00,Wunderground v.1.15,2013-02-15 15:05:00,
2013-02-15 10:10:00,46.7,33.5,30.01,West,259,2.0,2.0,60,0.00,,,0.00,Wunderground v.1.15,2013-02-15 15:10:00,
2013-02-15 10:15:00,47.0,34.2,30.02,SW,235,1.0,2.0,61,0.00,,,0.00,Wunderground v.1.15,2013-02-15 15:15:00,
2013-02-15 10:20:00,47.4,34.2,30.02,WSW,241,1.0,1.0,60,0.00,,,0.00,Wunderground v.1.15,2013-02-15 15:20:00,
2013-02-15 10:25:00,47.8,34.6,30.02,WSW,241,1.0,2.0,60,0.00,,,0.00,Wunderground v.1.15,2013-02-15 15:25:00,
2013-02-15 10:30:00,48.1,34.0,30.02,West,281,1.0,1.0,58,0.00,,,0.00,Wunderground v.1.15,2013-02-15 15:30:00,
2013-02-15 10:35:00,48.3,34.2,30.02,WSW,245,1.0,2.0,58,0.00,,,0.00,Wunderground v.1.15,2013-02-15 15:35:00,
2013-02-15 10:40:00,48.7,35.0,30.01,SW,225,1.0,1.0,59,0.00,,,0.00,Wunderground v.1.15,2013-02-15 15:40:00,
2013-02-15 10:45:00,49.1,34.9,30.01,WSW,257,1.0,2.0,58,0.00,,,0.00,Wunderground v.1.15,2013-02-15 15:45:00,
2013-02-15 10:50:00,49.5,34.4,30.01,WSW,258,1.0,1.0,56,0.00,,,0.00,Wunderground v.1.15,2013-02-15 15:50:00,
2013-02-15 10:55:00,49.9,34.4,30.01,SSW,194,1.0,2.0,55,0.00,,,0.00,Wunderground v.1.15,2013-02-15 15:55:00,
2013-02-15 11:00:00,50.2,33.7,30.00,NNE,22,1.0,2.0,53,0.00,,,0.00,Wunderground v.1.15,2013-02-15 16:00:00,
2013-02-15 11:06:00,50.4,34.8,30.00,North,355,1.0,4.0,55,0.00,,,0.00,Wunderground v.1.15,2013-02-15 16:06:00,
2013-02-15 11:12:00,50.6,34.6,30.00,NE,46,1.0,1.0,54,0.00,,,0.00,Wunderground v.1.15,2013-02-15 16:12:00,
2013-02-15 11:17:00,50.9,33.4,30.00,ENE,73,1.0,2.0,51,0.00,,,0.00,Wunderground v.1.15,2013-02-15 16:17:00,
2013-02-15 11:22:00,51.0,33.0,29.99,SW,219,1.0,2.0,50,0.00,,,0.00,Wunderground v.1.15,2013-02-15 16:22:00,
2013-02-15 11:27:00,50.9,33.9,29.99,SSW,204,2.0,3.0,52,0.00,,,0.00,Wunderground v.1.15,2013-02-15 16:27:00,
2013-02-15 11:32:00,51.0,35.4,29.99,West,260,1.0,2.0,55,0.00,,,0.00,Wunderground v.1.15,2013-02-15 16:32:00,
2013-02-15 11:37:00,51.4,34.3,29.99,SW,227,1.0,3.0,52,0.00,,,0.00,Wunderground v.1.15,2013-02-15 16:37:00,
2013-02-15 11:42:00,51.7,34.6,29.99,South,180,2.0,5.0,52,0.00,,,0.00,Wunderground v.1.15,2013-02-15 16:42:00,
2013-02-15 11:47:00,51.6,34.0,29.99,South,186,2.0,5.0,51,0.00,,,0.00,Wunderground v.1.15,2013-02-15 16:47:00,
2013-02-15 11:52:00,51.5,34.4,29.99,WSW,249,2.0,4.0,52,0.00,,,0.00,Wunderground v.1.15,2013-02-15 16:52:00,
2013-02-15 11:58:00,51.5,34.0,29.98,SSE,163,2.0,4.0,51,0.00,,,0.00,Wunderground v.1.15,2013-02-15 16:58:00,
2013-02-15 12:04:00,51.4,35.3,29.98,South,182,3.0,3.0,54,0.00,,,0.00,Wunderground v.1.15,2013-02-15 17:04:00,
2013-02-15 12:09:00,51.5,33.5,29.98,SSE,167,2.0,4.0,50,0.00,,,0.00,Wunderground v.1.15,2013-02-15 17:09:00,
2013-02-15 12:15:00,51.6,34.0,29.98,West,267,2.0,3.0,51,0.00,,,0.00,Wunderground v.1.15,2013-02-15 17:15:00,
2013-02-15 12:20:00,51.6,34.5,29.97,SE,136,2.0,2.0,52,0.00,,,0.00,Wunderground v.1.15,2013-02-15 17:20:00,
2013-02-15 12:25:00,51.4,33.9,29.97,SSE,161,3.0,5.0,51,0.00,,,0.00,Wunderground v.1.15,2013-02-15 17:25:00,
2013-02-15 12:30:00,51.0,34.0,29.97,WNW,298,3.0,3.0,52,0.00,,,0.00,Wunderground v.1.15,2013-02-15 17:30:00,
2013-02-15 12:35:00,51.3,33.3,29.96,SSE,157,2.0,3.0,50,0.00,,,0.00,Wunderground v.1.15,2013-02-15 17:35:00,
2013-02-15 12:40:00,51.4,33.9,29.96,South,173,2.0,2.0,51,0.00,,,0.00,Wunderground v.1.15,2013-02-15 17:40:00,
2013-02-15 12:45:00,51.5,34.9,29.96,South,171,2.0,4.0,53,0.00,,,0.00,Wunderground v.1.15,2013-02-15 17:45:00,
2013-02-15 12:51:00,51.5,34.4,29.95,SSE,148,2.0,4.0,52,0.00,,,0.00,Wunderground v.1.15,2013-02-15 17:51:00,
2013-02-15 12:56:00,51.8,34.7,29.95,WSW,242,2.0,4.0,52,0.00,,,0.00,Wunderground v.1.15,2013-02-15 17:56:00,
2013-02-15 13:01:00,51.8,33.2,29.95,SSE,162,2.0,2.0,49,0.00,,,0.00,Wunderground v.1.15,2013-02-15 18:01:00,
2013-02-15 13:07:00,52.3,35.2,29.94,SE,132,1.0,2.0,52,0.00,,,0.00,Wunderground v.1.15,2013-02-15 18:07:00,
2013-02-15 13:13:00,52.5,33.4,29.94,SSE,163,2.0,5.0,48,0.00,,,0.00,Wunderground v.1.15,2013-02-15 18:13:00,
2013-02-15 13:19:00,52.2,33.6,29.94,SE,144,2.0,5.0,49,0.00,,,0.00,Wunderground v.1.15,2013-02-15 18:19:00,
2013-02-15 13:25:00,52.1,33.0,29.94,SW,229,2.0,3.0,48,0.00,,,0.00,Wunderground v.1.15,2013-02-15 18:25:00,
2013-02-15 13:30:00,52.0,33.4,29.94,SW,221,1.0,1.0,49,0.00,,,0.00,Wunderground v.1.15,2013-02-15 18:30:00,
2013-02-15 13:35:00,51.9,33.3,29.94,SW,221,1.0,2.0,49,0.00,,,0.00,Wunderground v.1.15,2013-02-15 18:35:00,
2013-02-15 13:40:00,51.6,33.6,29.94,West,265,1.0,1.0,50,0.00,,,0.00,Wunderground v.1.15,2013-02-15 18:40:00,
2013-02-15 13:46:00,51.5,33.5,29.94,West,265,1.0,1.0,50,0.00,,,0.00,Wunderground v.1.15,2013-02-15 18:46:00,
2013-02-15 13:52:00,51.4,33.4,29.93,NNE,15,0.0,1.0,50,0.00,,,0.00,Wunderground v.1.15,2013-02-15 18:52:00,
2013-02-15 13:58:00,51.1,34.1,29.93,North,11,1.0,2.0,52,0.00,,,0.00,Wunderground v.1.15,2013-02-15 18:58:00,
2013-02-15 14:04:00,50.9,33.4,29.93,WNW,297,1.0,1.0,51,0.00,,,0.00,Wunderground v.1.15,2013-02-15 19:04:00,
2013-02-15 14:10:00,50.8,33.0,29.93,WNW,297,0.0,2.0,50,0.00,,,0.00,weatherlink.com 1.10,2013-02-15 19:10:00,
2013-02-15 14:16:00,50.6,33.1,29.93,WNW,297,0.0,0.0,51,0.00,,,0.00,Wunderground v.1.15,2013-02-15 19:16:00,
2013-02-15 14:22:00,50.5,34.0,29.93,NNE,26,0.0,2.0,53,0.00,,,0.00,Wunderground v.1.15,2013-02-15 19:22:00,
2013-02-15 14:27:00,50.3,33.8,29.93,NNE,26,0.0,2.0,53,0.00,,,0.00,Wunderground v.1.15,2013-02-15 19:27:00,
2013-02-15 14:32:00,50.0,33.5,29.93,NE,40,1.0,3.0,53,0.00,,,0.00,Wunderground v.1.15,2013-02-15 19:32:00,
2013-02-15 14:37:00,49.5,33.5,29.93,NNE,22,2.0,3.0,54,0.00,,,0.00,Wunderground v.1.15,2013-02-15 19:37:00,
2013-02-15 14:42:00,49.2,34.2,29.93,NNE,26,2.0,2.0,56,0.00,,,0.00,Wunderground v.1.15,2013-02-15 19:42:00,
2013-02-15 14:48:00,48.6,35.7,29.93,NNE,19,2.0,4.0,61,0.00,,,0.00,Wunderground v.1.15,2013-02-15 19:48:00,
2013-02-15 14:53:00,48.0,37.2,29.94,NNE,24,2.0,3.0,66,0.00,,,0.00,Wunderground v.1.15,2013-02-15 19:53:00,
2013-02-15 14:59:00,47.3,38.4,29.94,North,5,2.0,3.0,71,0.00,,,0.00,Wunderground v.1.15,2013-02-15 19:59:00,
2013-02-15 15:04:00,46.8,38.2,29.94,NNE,12,2.0,2.0,72,0.00,,,0.00,Wunderground v.1.15,2013-02-15 20:04:00,
2013-02-15 15:10:00,46.5,37.6,29.94,NE,38,2.0,2.0,71,0.00,,,0.00,Wunderground v.1.15,2013-02-15 20:10:00,
2013-02-15 15:16:00,46.4,37.5,29.94,NE,38,2.0,2.0,71,0.00,,,0.00,Wunderground v.1.15,2013-02-15 20:16:00,
2013-02-15 15:21:00,46.2,37.3,29.94,NNE,29,2.0,3.0,71,0.00,,,0.00,Wunderground v.1.15,2013-02-15 20:21:00,
2013-02-15 15:26:00,46.0,37.0,29.94,North,355,2.0,4.0,71,0.00,,,0.00,weatherlink.com 1.10,2013-02-15 20:26:00,
2013-02-15 15:31:00,45.7,35.4,29.94,NNW,343,1.0,4.0,67,0.00,,,0.00,Wunderground v.1.15,2013-02-15 20:31:00,
2013-02-15 15:36:00,44.9,34.2,29.94,NNE,28,3.0,5.0,66,0.00,,,0.00,Wunderground v.1.15,2013-02-15 20:36:00,
2013-02-15 15:41:00,43.9,34.7,29.95,North,5,4.0,5.0,70,0.00,,,0.01,Wunderground v.1.15,2013-02-15 20:41:00,
2013-02-15 15:47:00,43.0,34.9,29.96,NNE,21,3.0,5.0,73,0.00,,,0.01,Wunderground v.1.15,2013-02-15 20:47:00,
2013-02-15 15:54:00,42.2,35.2,29.96,NE,34,2.0,3.0,76,0.05,,,0.02,Wunderground v.1.15,2013-02-15 20:54:00,
2013-02-15 16:00:00,41.3,35.0,29.97,NNE,24,2.0,2.0,78,0.08,,,0.03,Wunderground v.1.15,2013-02-15 21:00:00,
2013-02-15 16:06:00,40.7,35.0,29.96,NNE,29,2.0,3.0,80,0.10,,,0.04,Wunderground v.1.15,2013-02-15 21:06:00,
2013-02-15 16:11:00,40.3,35.0,29.96,NE,38,0.0,4.0,82,0.04,,,0.04,weatherlink.com 1.10,2013-02-15 21:11:00,
2013-02-15 16:17:00,40.1,35.4,29.96,North,360,1.0,2.0,83,0.06,,,0.05,Wunderground v.1.15,2013-02-15 21:17:00,
2013-02-15 16:22:00,40.0,35.6,29.96,North,360,1.0,2.0,84,0.06,,,0.05,Wunderground v.1.15,2013-02-15 21:22:00,
2013-02-15 16:27:00,39.7,35.6,29.96,NNE,15,2.0,3.0,85,0.05,,,0.05,Wunderground v.1.15,2013-02-15 21:27:00,
2013-02-15 16:34:00,39.4,35.3,29.96,North,360,2.0,2.0,85,0.05,,,0.06,Wunderground v.1.15,2013-02-15 21:34:00,
2013-02-15 16:39:00,39.3,35.2,29.96,North,360,2.0,3.0,85,0.05,,,0.06,Wunderground v.1.15,2013-02-15 21:39:00,
2013-02-15 16:44:00,39.2,35.4,29.95,North,360,1.0,2.0,86,0.04,,,0.06,Wunderground v.1.15,2013-02-15 21:44:00,
2013-02-15 16:49:00,39.0,35.2,29.95,NNE,17,1.0,3.0,86,0.00,,,0.06,Wunderground v.1.15,2013-02-15 21:49:00,
2013-02-15 16:54:00,38.9,34.8,29.95,NNE,19,2.0,2.0,85,0.00,,,0.06,Wunderground v.1.15,2013-02-15 21:54:00,
2013-02-15 16:59:00,38.9,34.8,29.96,NNE,15,2.0,3.0,85,0.00,,,0.06,Wunderground v.1.15,2013-02-15 21:59:00,
2013-02-15 17:04:00,38.8,34.7,29.96,NNE,13,2.0,2.0,85,0.00,,,0.06,Wunderground v.1.15,2013-02-15 22:04:00,
2013-02-15 17:10:00,38.8,34.1,29.96,NE,41,2.0,2.0,83,0.00,,,0.06,Wunderground v.1.15,2013-02-15 22:10:00,
2013-02-15 17:15:00,38.8,34.1,29.95,NNE,22,1.0,3.0,83,0.00,,,0.06,Wunderground v.1.15,2013-02-15 22:15:00,
2013-02-15 17:20:00,38.8,34.1,29.95,NNW,335,1.0,4.0,83,0.00,,,0.06,Wunderground v.1.15,2013-02-15 22:20:00,
2013-02-15 17:26:00,38.8,34.4,29.96,NNE,12,1.0,4.0,84,0.00,,,0.06,Wunderground v.1.15,2013-02-15 22:26:00,
2013-02-15 17:31:00,38.6,33.9,29.97,NE,40,2.0,3.0,83,0.00,,,0.06,Wunderground v.1.15,2013-02-15 22:31:00,
2013-02-15 17:37:00,38.3,33.9,29.98,North,9,3.0,3.0,84,0.00,,,0.07,Wunderground v.1.15,2013-02-15 22:37:00,
2013-02-15 17:42:00,37.9,33.8,29.98,NE,49,2.0,3.0,85,0.10,,,0.08,Wunderground v.1.15,2013-02-15 22:42:00,
2013-02-15 17:48:00,37.3,33.8,29.97,NE,40,2.0,3.0,87,0.10,,,0.09,Wunderground v.1.15,2013-02-15 22:48:00,
2013-02-15 17:54:00,36.8,33.6,29.98,NNE,28,2.0,3.0,88,0.11,,,0.10,Wunderground v.1.15,2013-02-15 22:54:00,
2013-02-15 17:59:00,36.4,33.5,29.97,NNE,29,2.0,3.0,89,0.13,,,0.12,Wunderground v.1.15,2013-02-15 22:59:00,
2013-02-15 18:05:00,36.1,33.5,29.97,NNE,32,2.0,3.0,90,0.10,,,0.12,Wunderground v.1.15,2013-02-15 23:05:00,
2013-02-15 18:10:00,36.0,33.4,29.98,NNE,29,2.0,2.0,90,0.06,,,0.13,Wunderground v.1.15,2013-02-15 23:10:00,
2013-02-15 18:15:00,35.9,34.0,29.98,East,97,2.0,6.0,91,0.07,,,0.13,weatherlink.com 1.10,2013-02-15 23:15:00,
2013-02-15 18:21:00,36.0,33.6,29.98,NE,40,1.0,3.0,91,0.05,,,0.13,Wunderground v.1.15,2013-02-15 23:21:00,
2013-02-15 18:26:00,36.1,33.7,29.98,NNE,33,1.0,3.0,91,0.04,,,0.13,Wunderground v.1.15,2013-02-15 23:26:00,
2013-02-15 18:31:00,36.2,34.0,29.99,NNE,33,1.0,2.0,92,0.06,,,0.13,weatherlink.com 1.10,2013-02-15 23:31:00,
2013-02-15 18:36:00,36.3,33.9,29.99,NE,34,1.0,2.0,91,0.00,,,0.13,Wunderground v.1.15,2013-02-15 23:36:00,
2013-02-15 18:41:00,36.3,33.9,29.99,NE,34,1.0,1.0,91,0.00,,,0.13,Wunderground v.1.15,2013-02-15 23:41:00,
2013-02-15 18:47:00,36.4,34.0,30.00,NNE,15,1.0,3.0,91,0.00,,,0.13,Wunderground v.1.15,2013-02-15 23:47:00,
2013-02-15 18:52:00,36.5,33.8,30.00,NE,42,1.0,1.0,90,0.00,,,0.14,Wunderground v.1.15,2013-02-15 23:52:00,
2013-02-15 18:57:00,36.5,33.8,30.00,NE,42,0.0,1.0,90,0.00,,,0.14,Wunderground v.1.15,2013-02-15 23:57:00,
2013-02-15 19:02:00,36.5,34.1,30.00,NNE,12,0.0,1.0,91,0.00,,,0.14,Wunderground v.1.15,2013-02-16 00:02:00,
2013-02-15 19:09:00,36.4,34.0,30.00,ENE,77,0.0,1.0,91,0.00,,,0.15,Wunderground v.1.15,2013-02-16 00:09:00,
2013-02-15 19:14:00,36.4,34.0,30.00,NE,36,0.0,1.0,91,0.00,,,0.15,Wunderground v.1.15,2013-02-16 00:14:00,
2013-02-15 19:19:00,36.5,34.1,30.01,NE,40,1.0,1.0,91,0.00,,,0.15,Wunderground v.1.15,2013-02-16 00:19:00,
2013-02-15 19:25:00,36.5,34.1,30.01,NE,40,0.0,1.0,91,0.00,,,0.15,Wunderground v.1.15,2013-02-16 00:25:00,
2013-02-15 19:30:00,36.5,34.1,30.01,SW,235,1.0,1.0,91,0.00,,,0.16,Wunderground v.1.15,2013-02-16 00:30:00,
2013-02-15 19:36:00,36.5,34.1,30.01,SW,235,0.0,1.0,91,0.00,,,0.16,Wunderground v.1.15,2013-02-16 00:36:00,
2013-02-15 19:41:00,36.4,34.0,30.00,SSE,148,0.0,1.0,91,0.00,,,0.16,Wunderground v.1.15,2013-02-16 00:41:00,
2013-02-15 19:46:00,36.4,34.0,30.00,SSE,163,0.0,2.0,91,0.00,,,0.17,Wunderground v.1.15,2013-02-16 00:46:00,
2013-02-15 19:52:00,36.4,34.3,30.00,SSE,163,0.0,0.0,92,0.00,,,0.17,Wunderground v.1.15,2013-02-16 00:52:00,
2013-02-15 19:57:00,36.3,34.2,30.00,SSE,163,0.0,0.0,92,0.00,,,0.17,Wunderground v.1.15,2013-02-16 00:57:00,
2013-02-15 20:02:00,36.3,34.2,30.00,SSE,163,0.0,0.0,92,0.00,,,0.17,Wunderground v.1.15,2013-02-16 01:02:00,
2013-02-15 20:09:00,36.2,34.4,30.00,SSE,163,0.0,1.0,93,0.00,,,0.17,Wunderground v.1.15,2013-02-16 01:09:00,
2013-02-15 20:14:00,36.2,34.4,30.00,SSE,163,0.0,1.0,93,0.00,,,0.17,Wunderground v.1.15,2013-02-16 01:14:00,
2013-02-15 20:19:00,36.1,34.3,30.00,SSE,163,0.0,1.0,93,0.00,,,0.17,Wunderground v.1.15,2013-02-16 01:19:00,
2013-02-15 20:24:00,36.1,34.3,30.01,SSE,163,0.0,0.0,93,0.00,,,0.17,Wunderground v.1.15,2013-02-16 01:24:00,
2013-02-15 20:30:00,36.1,34.5,30.01,SSE,163,0.0,0.0,94,0.00,,,0.17,Wunderground v.1.15,2013-02-16 01:30:00,
2013-02-15 20:35:00,36.1,34.5,30.00,SSE,163,0.0,0.0,94,0.00,,,0.17,Wunderground v.1.15,2013-02-16 01:35:00,
2013-02-15 20:41:00,36.1,34.5,30.00,SSE,163,0.0,0.0,94,0.00,,,0.17,Wunderground v.1.15,2013-02-16 01:41:00,
2013-02-15 20:46:00,36.0,34.4,30.00,SSE,163,0.0,1.0,94,0.00,,,0.17,Wunderground v.1.15,2013-02-16 01:46:00,
2013-02-15 20:52:00,36.0,34.4,30.00,SSE,163,0.0,0.0,94,0.00,,,0.17,Wunderground v.1.15,2013-02-16 01:52:00,
2013-02-15 20:58:00,35.9,34.1,30.00,SSE,163,0.0,2.0,93,0.00,,,0.17,Wunderground v.1.15,2013-02-16 01:58:00,
2013-02-15 21:04:00,35.9,34.3,30.01,SSE,163,1.0,1.0,94,0.00,,,0.17,Wunderground v.1.15,2013-02-16 02:04:00,
2013-02-15 21:10:00,35.9,34.3,30.01,SSE,163,0.0,0.0,94,0.00,,,0.17,Wunderground v.1.15,2013-02-16 02:10:00,
2013-02-15 21:16:00,35.9,34.0,30.00,SSE,163,0.0,0.0,94,0.00,,,0.17,weatherlink.com 1.10,2013-02-16 02:16:00,
2013-02-15 21:22:00,35.8,34.0,30.00,SSE,163,0.0,0.0,93,0.00,,,0.17,Wunderground v.1.15,2013-02-16 02:22:00,
2013-02-15 21:27:00,35.8,34.0,30.00,SSE,163,0.0,0.0,93,0.00,,,0.17,Wunderground v.1.15,2013-02-16 02:27:00,
2013-02-15 21:32:00,35.7,34.1,30.01,SSE,163,0.0,1.0,94,0.00,,,0.17,Wunderground v.1.15,2013-02-16 02:32:00,
2013-02-15 21:37:00,35.7,33.9,30.01,SSE,163,0.0,1.0,93,0.00,,,0.17,Wunderground v.1.15,2013-02-16 02:37:00,
2013-02-15 21:43:00,35.6,33.8,30.01,SSE,163,0.0,1.0,93,0.00,,,0.17,Wunderground v.1.15,2013-02-16 02:43:00,
2013-02-15 21:48:00,35.5,33.7,30.00,SSE,163,0.0,1.0,93,0.00,,,0.17,Wunderground v.1.15,2013-02-16 02:48:00,
2013-02-15 21:53:00,35.5,33.7,30.01,SSE,163,0.0,0.0,93,0.00,,,0.17,Wunderground v.1.15,2013-02-16 02:53:00,
2013-02-15 21:59:00,35.5,33.9,30.01,SSE,163,0.0,1.0,94,0.00,,,0.17,Wunderground v.1.15,2013-02-16 02:59:00,
2013-02-15 22:04:00,35.5,33.9,30.01,SSE,163,0.0,2.0,94,0.00,,,0.17,Wunderground v.1.15,2013-02-16 03:04:00,
2013-02-15 22:10:00,35.4,33.8,30.01,SSE,163,0.0,0.0,94,0.00,,,0.17,Wunderground v.1.15,2013-02-16 03:10:00,
2013-02-15 22:15:00,35.4,33.6,30.01,SSE,163,0.0,0.0,93,0.00,,,0.17,Wunderground v.1.15,2013-02-16 03:15:00,
2013-02-15 22:20:00,35.3,33.5,30.01,SSE,163,0.0,0.0,93,0.00,,,0.17,Wunderground v.1.15,2013-02-16 03:20:00,
2013-02-15 22:25:00,35.3,33.5,30.01,SSE,163,0.0,0.0,93,0.00,,,0.17,Wunderground v.1.15,2013-02-16 03:25:00,
2013-02-15 22:31:00,35.2,33.4,30.01,SSE,163,0.0,0.0,93,0.00,,,0.17,Wunderground v.1.15,2013-02-16 03:31:00,
2013-02-15 22:36:00,35.1,33.3,30.01,SSE,163,0.0,0.0,93,0.00,,,0.17,Wunderground v.1.15,2013-02-16 03:36:00,
2013-02-15 22:41:00,35.0,33.2,30.01,ENE,62,0.0,1.0,93,0.00,,,0.17,Wunderground v.1.15,2013-02-16 03:41:00,
2013-02-15 22:47:00,35.0,33.0,30.01,WSW,250,1.0,3.0,91,0.00,,,0.17,weatherlink.com 1.10,2013-02-16 03:47:00,
2013-02-15 22:52:00,35.2,31.7,30.01,NNW,331,1.0,1.0,87,0.00,,,0.17,Wunderground v.1.15,2013-02-16 03:52:00,
2013-02-15 22:57:00,35.3,31.5,30.00,NNW,331,0.0,1.0,86,0.00,,,0.17,Wunderground v.1.15,2013-02-16 03:57:00,
2013-02-15 23:03:00,35.3,32.0,30.00,NNW,331,0.0,2.0,86,0.00,,,0.17,weatherlink.com 1.10,2013-02-16 04:03:00,
2013-02-15 23:08:00,35.2,31.1,30.00,NW,319,0.0,1.0,85,0.00,,,0.17,Wunderground v.1.15,2013-02-16 04:08:00,
2013-02-15 23:14:00,35.3,30.9,30.00,NW,319,0.0,0.0,84,0.00,,,0.17,Wunderground v.1.15,2013-02-16 04:14:00,
2013-02-15 23:19:00,35.2,30.9,30.00,NW,319,0.0,0.0,84,0.00,,,0.17,Wunderground v.1.15,2013-02-16 04:19:00,
2013-02-15 23:24:00,35.2,31.1,30.00,NW,319,0.0,0.0,85,0.00,,,0.17,Wunderground v.1.15,2013-02-16 04:24:00,
2013-02-15 23:29:00,35.0,31.2,30.00,NW,319,0.0,0.0,86,0.00,,,0.17,Wunderground v.1.15,2013-02-16 04:29:00,
2013-02-15 23:34:00,34.8,30.8,30.00,NW,319,0.0,0.0,85,0.00,,,0.17,Wunderground v.1.15,2013-02-16 04:34:00,
2013-02-15 23:40:00,34.8,31.0,30.00,NW,319,0.0,0.0,86,0.00,,,0.17,Wunderground v.1.15,2013-02-16 04:40:00,
2013-02-15 23:45:00,34.7,31.2,30.00,NW,319,0.0,0.0,87,0.00,,,0.17,Wunderground v.1.15,2013-02-16 04:45:00,
2013-02-15 23:50:00,34.5,30.7,29.99,NW,319,0.0,0.0,86,0.00,,,0.17,Wunderground v.1.15,2013-02-16 04:50:00,
2013-02-15 23:55:00,34.4,30.4,30.00,NW,319,0.0,0.0,85,0.00,,,0.17,Wunderground v.1.15,2013-02-16 04:55:00,